Weather History for TJSJ - November, 2013

Change the Weather History Date:

Monday, November 11, 2013

  Actual Average Record
Temperature  
Mean Temperature 83 °F 81 °F  
Max Temperature 89 °F 86 °F 91 °F (1974)
Min Temperature 76 °F 76 °F 67 °F (1919)
Degree Days  
Heating Degree Days 0 0  
Month to date heating degree days 0 0  
Since 1 July heating degree days 0 0  
Cooling Degree Days 18 16  
Month to date cooling degree days 184 179  
Year to date cooling degree days 5278 5138  
Growing Degree Days 32 (Base 50)    
Moisture  
Dew Point 73 °F    
Average Humidity 75    
Maximum Humidity 87    
Minimum Humidity 63    
Precipitation  
Precipitation 0.46 in 0.23 in 7.92 in (1931)
Month to date precipitation 1.14 2.47  
Year to date precipitation 69.62 47.45  
Sea Level Pressure  
Sea Level Pressure 30.00 in    
Wind  
Wind Speed 8 mph (East)    
Max Wind Speed 21 mph    
Max Gust Speed 24 mph    
Visibility 9 miles    
Events Rain    
T = Trace of Precipitation, MM = Missing Value Source: NWS Daily Summary

Daily Weather History Graph

Daily Weather History Graph

Search for Another Location

Airport or City:

Trip Planner

Search our weather history database for the weather conditions in past years. The results will help you decide how hot, cold, wet, or windy it might be!

Date:

Astronomy

Nov. 11, 2013 Rise Set
Actual Time 6:28 AM AST 5:47 PM AST
Civil Twilight 6:05 AM AST 6:10 PM AST
Nautical Twilight 5:39 AM AST 6:36 PM AST
Astronomical Twilight 5:13 AM AST 7:02 PM AST
Moon 1:40 PM AST (11/11) 12:59 AM AST (11/11)
Length of Visible Light 12h 04m
Length of Day
11h 18m
Waxing Gibbous, 66% of the Moon is Illuminated
Nov 11
Waxing Gibbous
Nov 17
Full
Nov 25
Last Quarter
Dec 2
New
Dec 9
First Quarter

Hourly Weather History & Observations

Time (AST) Temp. Heat Index Dew Point Humidity Pressure Visibility Wind Dir Wind Speed Gust Speed Precip Events Conditions
12:56 AM 78.1 °F - 72.0 °F 81% 29.99 in 10.0 mi East 8.1 mph - 0.01 in Rain Light Rain
1:56 AM 78.1 °F - 73.0 °F 84% 29.98 in 10.0 mi Calm Calm - 0.00 in   Partly Cloudy
2:56 AM 78.1 °F - 73.0 °F 84% 29.97 in 10.0 mi Calm Calm - N/A   Partly Cloudy
3:56 AM 77.0 °F - 72.0 °F 84% 29.97 in 10.0 mi Calm Calm - N/A   Scattered Clouds
4:56 AM 75.9 °F - 72.0 °F 87% 29.97 in 10.0 mi ESE 3.5 mph - N/A   Partly Cloudy
5:56 AM 75.9 °F - 72.0 °F 87% 29.98 in 10.0 mi Calm Calm - N/A   Partly Cloudy
6:56 AM 78.1 °F - 72.0 °F 81% 30.01 in 10.0 mi SE 3.5 mph - N/A   Partly Cloudy
7:56 AM 80.1 °F 84.2 °F 73.0 °F 79% 30.02 in 10.0 mi Variable 3.5 mph - N/A   Partly Cloudy
8:56 AM 82.9 °F 88.8 °F 73.0 °F 72% 30.04 in 9.0 mi East 10.4 mph - N/A   Partly Cloudy
9:56 AM 86.0 °F 93.0 °F 73.0 °F 65% 30.04 in 9.0 mi ESE 9.2 mph - N/A   Partly Cloudy
10:56 AM 87.1 °F 94.5 °F 73.0 °F 63% 30.04 in 9.0 mi ENE 15.0 mph - N/A   Partly Cloudy
11:56 AM 88.0 °F 96.5 °F 73.9 °F 63% 30.02 in 8.0 mi ENE 13.8 mph - N/A   Scattered Clouds
12:56 PM 88.0 °F 95.6 °F 73.0 °F 61% 30.00 in 8.0 mi ENE 18.4 mph - N/A   Scattered Clouds
1:56 PM 88.0 °F 95.6 °F 73.0 °F 61% 29.97 in 8.0 mi ENE 18.4 mph - N/A   Scattered Clouds
2:56 PM 88.0 °F 95.6 °F 73.0 °F 61% 29.97 in 8.0 mi East 15.0 mph 23.0 mph N/A   Scattered Clouds
3:56 PM 86.0 °F 93.0 °F 73.0 °F 65% 29.97 in 8.0 mi ENE 13.8 mph - N/A   Scattered Clouds
4:56 PM 84.9 °F 92.1 °F 73.9 °F 69% 29.97 in 8.0 mi ENE 12.7 mph - N/A   Scattered Clouds
5:56 PM 81.0 °F 87.3 °F 75.9 °F 85% 29.98 in 8.0 mi ESE 8.1 mph - 0.16 in Rain Light Rain
6:56 PM 81.0 °F 86.7 °F 75.0 °F 82% 30.00 in 10.0 mi East 5.8 mph - 0.12 in   Scattered Clouds
7:56 PM 81.0 °F 86.2 °F 73.9 °F 79% 30.01 in 10.0 mi East 6.9 mph - N/A   Scattered Clouds
8:56 PM 81.0 °F 86.2 °F 73.9 °F 79% 30.01 in 10.0 mi East 6.9 mph - N/A   Scattered Clouds
9:56 PM 82.0 °F 87.4 °F 73.0 °F 74% 30.02 in 10.0 mi ESE 5.8 mph - N/A   Mostly Cloudy
10:56 PM 82.0 °F 87.4 °F 73.0 °F 74% 30.01 in 10.0 mi ESE 4.6 mph - N/A   Mostly Cloudy
11:56 PM 79.0 °F - 75.0 °F 88% 30.00 in 10.0 mi SE 8.1 mph - 0.17 in Rain Light Rain